Regional Weather Roundup
Issued by NWS

Home | Current Version | Previous Version | Text Only | Print | Product List | Glossary Off
Versions: 1 2 3 4 5 6 7 8 9 10 11 12 13 14 15 16 17 18 19 20 21 22 23 24 25 26 27 28 29 30 31 32 33 34 35 36 37 38 39 40 41 42 43 44 45 46 47 48 49 50

000
ASUS43 KDTX 221101
RWRMI
MICHIGAN HOURLY REGIONAL WEATHER ROUNDUP
NATIONAL WEATHER SERVICE DETROIT/PONTIAC MI
700 AM EDT MON MAY 22 2017

NOTE: "FAIR" INDICATES FEW OR NO CLOUDS BELOW 12,000 FEET WITH NO
SIGNIFICANT WEATHER AND/OR OBSTRUCTION TO VISIBILITY.

MIZ047>049-052>055-059>063-066>070-074>076-081>083-221200-
SOUTHEAST LOWER MICHIGAN

CITY           SKY/WX    TMP DP  RH WIND       PRES   REMARKS
ADRIAN         PTCLDY    48  41  76 W6        30.02R
ALMA           CLOUDY    49  43  78 SW9G17    29.94S
ANN ARBOR      CLOUDY    49  41  74 S7        29.99R
BAD AXE        CLOUDY    49  42  76 SW9       29.92S
CARO           CLOUDY    49  42  75 SW8       29.93S
DETROIT CITY   MOCLDY    52  39  61 W12G20    29.98R
DETROIT        CLOUDY    52  38  58 SW12      29.99S
FLINT          CLOUDY    50  41  71 SW10      29.96S
GROSSE ILE     PTCLDY    51  40  64 W8        29.99R
HILLSDALE      CLOUDY    48  41  76 W10       30.00R
HOWELL         CLOUDY    49  39  67 SW9       29.97S

CITY           SKY/WX    TMP DP  RH WIND       PRES   REMARKS
JACKSON        CLOUDY    50  41  71 SW10      29.99R
LAMBERTVILLE   PTCLDY    50  41  71 SW8       30.02R
LANSING        LGT RAIN  49  42  77 W9        29.98R
LAPEER         CLOUDY    51  40  67 W7        29.95S
MASON          CLOUDY    50  42  74 SW3       29.98R
MONROE         CLEAR     50  42  71 SW6       30.00R
MT. CLEMENS    CLOUDY    53  40  63 W14G21    29.96R
PONTIAC        CLOUDY    50  38  63 SW12      29.96R
PORT HOPE        N/A     51  42  71 VRB6      29.89S
PORT HURON     CLOUDY    52  39  62 W3        29.96R
TRI CITIES     CLOUDY    50  43  77 SW15      29.94R
MIDLAND        CLOUDY    50  41  71 SW10      29.92R
TROY           CLOUDY    52  37  56 SW7       29.99S
SAGINAW HB     CLOUDY    50  41  71 SW10      29.93S
$$
MIZ043>046-050>051-056>058-064>065-071>073-077>080-221200-
SOUTHWEST LOWER MICHIGAN

CITY           SKY/WX    TMP DP  RH WIND       PRES   REMARKS
BATTLE CREEK   CLOUDY    50  42  74 SW14G21   30.00R
BENTON HARBOR  CLOUDY    51  41  68 W22G29    30.02R
BIG RAPIDS     CLOUDY    46  42  86 SW8       29.91R
COLDWATER      CLOUDY    50  44  79 SW9       30.01R
FREMONT        CLOUDY    48  41  78 SW9       29.93R
HOLLAND        CLOUDY    50  43  77 W16       29.98R
GRAND RAPIDS   CLOUDY    50  43  77 SW17G25   29.96R
IONIA          CLOUDY    50  42  73 SW12      29.95S
KALAMAZOO      CLOUDY    51  41  68 SW7       30.01R
LUDINGTON      CLOUDY    46  43  89 SW12      29.89S
MARSHALL       CLOUDY    50  42  74 SW10      29.99R
MOUNT PLEASANT CLOUDY    48  43  83 SW7       29.92R
MUSKEGON       CLOUDY    49  42  77 SW14G21   29.96R
SOUTH HAVEN    CLOUDY    50  43  76 W14G24    30.00S
$$
MIZ016>042-221200-
NORTHERN LOWER MICHIGAN

CITY           SKY/WX    TMP DP  RH WIND       PRES   REMARKS
ALPENA         CLOUDY    50  43  77 SW8       29.85R
BEAVER ISLAND  LGT RAIN  45  43  95 SW10G16   29.80R
BELLAIRE       CLOUDY    47  44  89 S6        29.84S
CADILLAC       CLOUDY    45  44  97 SW14      29.86S FOG
CHARLEVOIX     DRIZZLE   47  46  99 S7        29.85R
FRANKFORT      LGT RAIN  45  42  87 S8        29.86R
GAYLORD        LGT RAIN  46  42  86 SW10      29.83R FOG
GRAYLING       CLOUDY    45  44  96 SW5       29.86S
HARBOR SPRINGS CLOUDY    47  46  95 SW8       29.81S
HOUGHTON LAKE  CLOUDY    46  43  89 SW14G23   29.87S
MANISTEE       CLOUDY    48  43  82 SW13      29.87R
OSCODA         CLOUDY    51  41  69 SW10G16   29.88R
PELLSTON       CLOUDY    48  44  86 SW7       29.81S
ROGERS CITY    CLOUDY    49  44  83 SW12      29.83S
TRAVERSE CITY  LGT RAIN  48  45  89 SW8       29.83S FOG
$$
MIZ007>008-015-221200-
EASTERN UPPER MICHIGAN

CITY           SKY/WX    TMP DP  RH WIND       PRES   REMARKS
KINROSS        LGT RAIN  46  45  96 SW8       29.79R
MACKINAC ISLAN LGT RAIN  46  46 100 SW7       29.80S
NEWBERRY       LGT RAIN  44  43  97 S9        29.75S
S. S. MARIE    CLOUDY    48  45  89 S10       29.77R
MUNISING         N/A     49  48  97 SW6       29.73S
$$
MIZ004>006-011>014-085-221200-
CENTRAL UPPER MICHIGAN

CITY           SKY/WX    TMP DP  RH WIND       PRES   REMARKS
MANISTIQUE     CLOUDY    45  41  88 S7        29.76S FOG
ESCANABA       CLOUDY    48  47  96 SW7       29.77R
MENOMINEE      CLOUDY    47  44  90 VRB7      29.82R
SAWYER-GWINN   CLOUDY    46  45  93 SW5       29.74R
$$
MIZ001>003-009>011-084-221200-
WESTERN UPPER MICHIGAN

CITY           SKY/WX    TMP DP  RH WIND       PRES   REMARKS
IRON MOUNTAIN  LGT RAIN  48  43  82 W7        29.76R
HOUGHTON       LGT RAIN  46  43  89 W16       29.71R FOG
COPPER HARBOR    N/A     45  44  97 VRB5      29.69S
IRONWOOD       CLOUDY    45  43  93 W10       29.77R
$$

ABBREVIATIONS USED IN REMARKS
   TC - TEMPERATURE IN CELSIUS
  WCI - WIND CHILL INDEX
   HX - HEAT INDEX
  VSB - VISIBILITY





USA.gov is the U.S. government's official web portal to all federal, state and local government web resources and services.